This is the latest recevied weather packets stored in our database for station/object KE5JQA-1. If no packets are shown the sender has not sent any weather packets the latest 10 day(s).
| Time | Temp. | Humidity | Pressure | Rain* | Wind** | Luminosity | Snow |
|---|---|---|---|---|---|---|---|
| 1777686617 | 12.78° C | 41% | 1017.5 hPa | 0 mm | - | - | - |
| 1777684817 | 12.78° C | 41% | 1017.3 hPa | 0.51 mm | - | - | - |
| 1777683337 | 12.22° C | 41% | 1017.2 hPa | 0.76 mm | - | - | - |
| 1777683017 | 12.78° C | 41% | 1016.9 hPa | 0.76 mm | - | - | - |
| 1777682717 | 12.78° C | 41% | 1016.5 hPa | 0.76 mm | - | - | - |
| 1777680617 | 12.22° C | 42% | 1017.1 hPa | 0.25 mm | - | - | - |
| 1777677317 | 12.22° C | 42% | 1016.6 hPa | 0 mm | - | - | - |
| 1777673417 | 12.22° C | 42% | 1014.8 hPa | 0.76 mm | - | - | - |
| 1777671017 | 12.22° C | 42% | 1014.8 hPa | 2.03 mm | - | - | - |
| 1777669817 | 12.22° C | 42% | 1015.2 hPa | 1.27 mm | - | - | - |
| 1777669517 | 12.22° C | 42% | 1014.7 hPa | 1.02 mm | - | - | - |
| 1777669257 | 12.22° C | 42% | 1014.5 hPa | 0.51 mm | - | - | - |
| 1777668037 | 12.22° C | 42% | 1014 hPa | 1.52 mm | - | - | - |
| 1777664416 | 13.33° C | 41% | 1015.7 hPa | 2.29 mm | - | - | - |
| 1777661437 | 13.33° C | 41% | 1013.6 hPa | 0 mm | - | - | - |
| 1777660516 | 13.33° C | 41% | 1013 hPa | 0 mm | - | - | - |
| 1777657216 | 13.33° C | 41% | 1014.5 hPa | 1.02 mm | - | - | - |
| 1777656016 | 13.33° C | 41% | 1015.1 hPa | 1.27 mm | - | - | - |
| 1777655416 | 13.33° C | 41% | 1014.4 hPa | 1.52 mm | - | - | - |
| 1777653956 | 12.78° C | 42% | 1015.2 hPa | 1.78 mm | - | - | - |
| 1777652716 | 13.33° C | 42% | 1015.4 hPa | 3.3 mm | - | - | - |
| 1777651537 | 13.33° C | 42% | 1015.6 hPa | 4.83 mm | - | - | - |
| 1777650916 | 13.33° C | 42% | 1015.4 hPa | 5.33 mm | - | - | - |
| 1777650016 | 13.33° C | 42% | 1017.1 hPa | 4.83 mm | - | - | - |
| 1777649116 | 13.33° C | 42% | 1017.3 hPa | 3.81 mm | - | - | - |
* Rain latest hour (hover to see other rain measurements)
** Current wind speed in m/s (hover to see current wind gust speed)